Showing default

QPS-SAR-14 YACHIHOKO-1, 66316

Orbit data source: Space-Track

QPS-SAR-14 YACHIHOKO-1, 66316 is a payload satellite owned by QPS Labs (JP) in LEO that was launched on Wed, 05 Nov 2025 UTC via an ELECTRON launch vehicle from the Rocket Lab Launch Complex (RLLC). Payload-class satellites include a variety of spacecraft equipped with specific instruments for various scientific and technological missions. These include communications satellites like Starlink; space stations such as the ISS; scientific satellites like the Hubble; Earth observation satellites from companies like Planet Labs, Umbra, and HawkEye 360; GPS; miniature CubeSats for education and research; and military/defense satellites.

Loading next visibility...
Identifier
66316, 2025-252A
Orbit
LEO
Country
Flag of JPJP / JPN
Related business
Manufacturer
QPS Labs
Mission
Operational Commercial Radar Imaging
Bus & Motor
QSAT, Unknown motor
Mass
~120 kg wet, ~100 kg dry
Launch date (UTC)
2025-11-05 (7 months ago)
Launch vehicle
ELECTRON
Launch site
Rocket Lab Launch Complex (RLLC)
Object type
Payload
Rocket body
Debris
Shape & HBR
Hex Cyl + 2 Pan + 1 Dish, 14.5 m
Radar Cross Section
1.179 m², Large (>1 m²)

Expand to show TLE details & history
Last TLE update: 16 hours ago

TLE from 16 hours ago
0 QPS-SAR-14 YACHIHOKO-1
1 66316U 25252A   26171.19195484  .00003706  00000-0  30970-3 0  9994
2 66316  42.0038 115.3015 0007425 275.3647  84.6331 14.99709657 33962
Epoch: 2026-06-20T04:36Z
TLE epoch observation values (Epoch: 2026-06-20T04:36:24.898Z)
Latitude
-0.00002°
Longitude
137.78762°
Altitude
566.983 km
Speed
7.58 km/s
True Right ascension
07h 41m 12s
True Declination
0° 00' 00"
Sunlit
Object was in daylight at epoch
Visualization orbit readout
Latitude
Unknown
Longitude
Unknown
Altitude
Unknown
Speed
Unknown
Apparent Right ascension
Unknown
Apparent Declination
Unknown
Sunlit
N/A
Visualization observer readout
Local Sidereal Time
07:18:20
Azimuth
Unknown
Elevation
Unknown
Doppler factor
Unknown
Orbital elements
Apogee altitude
575.038 km
Perigee altitude
564.72 km
Semi-major axis
6,948.016 km
Eccentricity
0.00074
Inclination
42.0038°
RAAN
115.3015°
Arg. of periapsis
275.3647°
True anomaly
84.71782°
Mean anomaly
84.6331°
Eccentric anomaly
84.67546°
Mean motion
3.74759 °/min
Orbital period
96.06 mins
BSTAR
0.0003097
Loading maneuver chart data...
Computing Atmospheric mass density...
Loading historical data...
Loading historical data...
Loading historical data...
Loading historical data...
Loading historical data...
Loading historical data...
Loading historical data...
Other satellites on launch #252 in the year 2025 (2025-11-05 UTC)

Documentation

Showing up to 5 results
|